Weather History for KBJJ - March, 2014

Change the Weather History Date:

Friday, March 14, 2014

  Actual Average (KCAK) Record (KCAK)
Temperature  
Mean Temperature 42 °F 37 °F  
Max Temperature 57 °F 46 °F 77 °F (1990)
Min Temperature 27 °F 28 °F 7 °F (1895)
Degree Days  
Heating Degree Days 23 28  
Month to date heating degree days 427  
Since 1 July heating degree days 4971  
Cooling Degree Days 0 0  
Month to date cooling degree days 0  
Year to date cooling degree days 0  
Moisture  
Dew Point 26 °F    
Average Humidity 53    
Maximum Humidity 76    
Minimum Humidity 39    
Precipitation  
Precipitation 0.04 in 0.10 in - ()
Month to date precipitation 1.24  
Year to date precipitation 6.16  
Snow  
Snow 0.00 in 0.20 in - ()
Month to date snowfall 4.5  
Since 1 July snowfall 41.0  
Snow Depth -    
Sea Level Pressure  
Sea Level Pressure 29.87 in    
Wind  
Wind Speed 14 mph (SW)    
Max Wind Speed 28 mph    
Max Gust Speed 43 mph    
Visibility 10 miles    
Events Rain    
T = Trace of Precipitation, MM = Missing Value Source: NWS Daily Summary

Daily Weather History Graph

Daily Weather History Graph

Search for Another Location

Airport or City:

Trip Planner

Search our weather history database for the weather conditions in past years. The results will help you decide how hot, cold, wet, or windy it might be!

Date:

Astronomy

Mar. 14, 2014 Rise Set
Actual Time 7:40 AM EDT 7:33 PM EDT
Civil Twilight 7:13 AM EDT 8:00 PM EDT
Nautical Twilight 6:41 AM EDT 8:32 PM EDT
Astronomical Twilight 6:09 AM EDT 9:04 PM EDT
Moon 5:53 PM EDT (3/14) 6:20 AM EDT (3/14)
Length of Visible Light 12h 47m
Length of Day
11h 52m
Waxing Gibbous, 96% of the Moon is Illuminated
Mar 14
Waxing Gibbous
Mar 16
Full
Mar 23
Last Quarter
Mar 30
New
Apr 7
First Quarter

Hourly Weather History & Observations

Time (EDT) Temp. Windchill Dew Point Humidity Pressure Visibility Wind Dir Wind Speed Gust Speed Precip Events Conditions
12:56 AM 28.0 °F 18.1 °F 17.1 °F 63% 30.07 in 10.0 mi SSW 11.5 mph - N/A   Overcast
1:56 AM 27.0 °F 18.0 °F 16.0 °F 63% 30.07 in 10.0 mi SSW 9.2 mph - N/A   Clear
2:56 AM 27.0 °F 18.7 °F 16.0 °F 63% 30.05 in 10.0 mi SSW 8.1 mph - N/A   Clear
3:56 AM 28.9 °F 21.1 °F 17.1 °F 61% 30.04 in 10.0 mi SSW 8.1 mph - N/A   Overcast
4:56 AM 30.9 °F 21.7 °F 19.0 °F 61% 30.02 in 10.0 mi SSW 11.5 mph - N/A   Overcast
5:56 AM 30.9 °F 21.2 °F 18.0 °F 59% 30.00 in 10.0 mi SSW 12.7 mph - N/A   Clear
6:56 AM 30.0 °F 19.1 °F 17.1 °F 59% 29.99 in 10.0 mi SSW 15.0 mph - N/A   Clear
7:56 AM 28.9 °F 19.2 °F 17.1 °F 61% 29.98 in 10.0 mi SSW 11.5 mph - N/A   Clear
8:56 AM 32.0 °F 21.6 °F 18.0 °F 56% 29.96 in 10.0 mi SSW 15.0 mph 23.0 mph N/A   Clear
9:56 AM 35.1 °F 25.2 °F 21.0 °F 57% 29.95 in 10.0 mi SSW 16.1 mph 24.2 mph N/A   Clear
10:56 AM 39.9 °F 31.4 °F 24.1 °F 53% 29.92 in 10.0 mi SSW 16.1 mph 25.3 mph N/A   Clear
11:56 AM 44.1 °F 36.8 °F 28.0 °F 53% 29.89 in 10.0 mi SSW 16.1 mph 29.9 mph N/A   Clear
12:56 PM 48.0 °F - 30.0 °F 50% 29.86 in 10.0 mi SSW 17.3 mph 32.2 mph N/A   Clear
1:56 PM 51.1 °F - 32.0 °F 48% 29.84 in 10.0 mi SW 23.0 mph 31.1 mph N/A   Clear
2:56 PM 54.0 °F - 33.1 °F 45% 29.76 in 10.0 mi SW 24.2 mph 32.2 mph N/A   Clear
3:56 PM 55.9 °F - 33.1 °F 42% 29.72 in 10.0 mi SSW 27.6 mph 40.3 mph N/A   Clear
4:56 PM 57.0 °F - 32.0 °F 39% 29.70 in 10.0 mi SW 24.2 mph 42.6 mph N/A   Clear
5:56 PM 55.9 °F - 32.0 °F 40% 29.69 in 10.0 mi SW 23.0 mph 38.0 mph N/A   Clear
6:56 PM 55.0 °F - 30.9 °F 40% 29.70 in 10.0 mi SW 18.4 mph 35.7 mph N/A   Partly Cloudy
7:56 PM 54.0 °F - 30.9 °F 41% 29.72 in 10.0 mi SW 21.9 mph 28.8 mph N/A   Overcast
8:56 PM 53.1 °F - 30.9 °F 43% 29.72 in 10.0 mi SW 18.4 mph 27.6 mph N/A   Overcast
9:56 PM 51.1 °F - 33.1 °F 50% 29.73 in 10.0 mi WSW 23.0 mph 31.1 mph 0.01 in Rain Light Rain
10:56 PM 50.0 °F - 34.0 °F 54% 29.73 in 10.0 mi WSW 13.8 mph - 0.00 in   Overcast
11:56 PM 45.0 °F 39.3 °F 37.9 °F 76% 29.78 in 10.0 mi West 11.5 mph - 0.03 in Rain Light Rain